7 * 24
多渠道服务支持
STARLINK-38423(NORAD ID 100624)是美国太空探索技术公司(SpaceX)星链(Starlink)低轨宽带互联网星座的新一代组网卫星,隶属于Starlink Gen2(第二代)星座序列,推测为V2 Mini构型卫星。该卫星由SpaceX自研制造,配备增强型相控阵天线与标配激光星间链路,单星带宽超100Gbps,支持全球无地面中继的高速数据传输,轨道周期约91分钟,运行于近地轨道,设计寿命5-7年,主要用于扩展星链网络全球覆盖范围,为地面、海洋及偏远区域提供低延迟高速互联网服务。截至2026年9月,该卫星处于在轨正常运行状态。
美国
(US)
| 数据来源 | 国际轨道数据 |
| 星历时间: | 2026-09-20T05:46:27+0800 19小时前 查看轨道信息 |
| 半长轴: | 6715.254km |
| 偏心率: | 0.0003683 |
| 轨道倾角: | 69.999° |
| 近地点辐角 | 272.960° |
| 升交点赤经 | 239.384° |
| 平近点角 | 87.118° |
| 近地点: | 334.643km |
| 远地点: | 339.591km |
| 周期: | 91.275分钟 |
| 每日圈数: | 15.776444 |